Location: Campestrin
(46.4667°N, 11.7167°E)
Time: 17:02:58
(UTC+00:00)

SPOT 1/Viking Rocket - Pass Details

Date: 18 April 2021
Orbit: 777 x 794 km, 98.4° (Epoch: 07 May)

Event Time Altitude Azimuth Distance (km) Brightness Sun altitude
Exits shadow 19:58:13 31° 143° (SE) 1,368 4.2 -17.9°
Maximum altitude 20:00:41 64° 72° (ENE) 878 3.6 -18.2°
Drops below altitude 10° 20:05:52 10° 352° (N) 2,373 6.7 -18.9°
Sets 20:08:13 0° 349° (N) 3,305 7.6 -19.2°
